Time,TemperatureF,DewpointF,PressureIn,WindDirection,WindDirectionDegrees,WindSpeedMPH,WindSpeedGustMPH,Humidity,HourlyPrecipIn,Conditions,Clouds,dailyrainin,SoftwareType,DateUTC
2013-03-16 00:02:00,6.0,4.0,-100.00,NNE,15,2.0,3.0,93,-99.99,,,-99.99,,2013-03-16 05:02:00,
2013-03-16 00:32:00,6.0,4.0,-100.00,NNE,15,2.0,3.0,93,-99.99,,,-99.99,,2013-03-16 05:32:00,
2013-03-16 00:42:00,6.0,4.0,-100.00,NNE,15,2.0,3.0,93,-99.99,,,-99.99,,2013-03-16 05:42:00,
2013-03-16 00:53:00,6.0,4.0,-100.00,NNE,15,2.0,3.0,93,-99.99,,,-99.99,,2013-03-16 05:53:00,
2013-03-16 01:02:00,5.0,3.0,-100.00,NNE,15,3.0,4.0,93,-99.99,,,-99.99,,2013-03-16 06:02:00,
2013-03-16 01:32:00,5.0,3.0,-100.00,NNE,15,3.0,4.0,93,-99.99,,,-99.99,,2013-03-16 06:32:00,
2013-03-16 01:42:00,5.0,3.0,-100.00,NNE,15,3.0,4.0,93,-99.99,,,-99.99,,2013-03-16 06:42:00,
2013-03-16 01:52:00,5.0,3.0,-100.00,NNE,15,3.0,4.0,93,-99.99,,,-99.99,,2013-03-16 06:52:00,
2013-03-16 02:02:00,4.0,3.0,-100.00,North,0,2.0,4.0,95,-99.99,,,-99.99,,2013-03-16 07:02:00,
2013-03-16 02:32:00,4.0,3.0,-100.00,North,0,2.0,4.0,95,-99.99,,,-99.99,,2013-03-16 07:32:00,
2013-03-16 02:42:00,4.0,3.0,-100.00,North,0,2.0,4.0,95,-99.99,,,-99.99,,2013-03-16 07:42:00,
2013-03-16 02:52:00,4.0,3.0,-100.00,North,0,2.0,4.0,95,-99.99,,,-99.99,,2013-03-16 07:52:00,
2013-03-16 03:33:00,3.0,2.0,-100.00,North,10,3.0,5.0,95,-99.99,,,-99.99,,2013-03-16 08:33:00,
2013-03-16 03:42:00,3.0,2.0,-100.00,North,10,3.0,5.0,95,-99.99,,,-99.99,,2013-03-16 08:42:00,
2013-03-16 03:52:00,3.0,2.0,-100.00,North,10,3.0,5.0,95,-99.99,,,-99.99,,2013-03-16 08:52:00,
2013-03-16 04:01:00,3.0,2.0,-100.00,North,10,3.0,5.0,95,-99.99,,,-99.99,,2013-03-16 09:01:00,
2013-03-16 04:02:00,2.0,1.0,-100.00,NNE,15,6.0,7.0,95,-99.99,,,-99.99,,2013-03-16 09:02:00,
2013-03-16 04:33:00,2.0,1.0,-100.00,NNE,15,6.0,7.0,95,-99.99,,,-99.99,,2013-03-16 09:33:00,
2013-03-16 04:42:00,2.0,1.0,-100.00,NNE,15,6.0,7.0,95,-99.99,,,-99.99,,2013-03-16 09:42:00,
2013-03-16 04:53:00,2.0,1.0,-100.00,NNE,15,6.0,7.0,95,-99.99,,,-99.99,,2013-03-16 09:53:00,
2013-03-16 05:02:00,2.0,1.0,-100.00,NW,305,0.0,1.0,96,-99.99,,,-99.99,,2013-03-16 10:02:00,
2013-03-16 05:32:00,2.0,1.0,-100.00,NW,305,0.0,1.0,96,-99.99,,,-99.99,,2013-03-16 10:32:00,
2013-03-16 05:42:00,2.0,1.0,-100.00,NW,305,0.0,1.0,96,-99.99,,,-99.99,,2013-03-16 10:42:00,
2013-03-16 05:53:00,2.0,1.0,-100.00,NW,305,0.0,1.0,96,-99.99,,,-99.99,,2013-03-16 10:53:00,
2013-03-16 06:02:00,2.0,1.0,-100.00,West,265,1.0,1.0,97,-99.99,,,-99.99,,2013-03-16 11:02:00,
2013-03-16 06:33:00,2.0,1.0,-100.00,West,265,1.0,1.0,97,-99.99,,,-99.99,,2013-03-16 11:33:00,
2013-03-16 06:43:00,2.0,1.0,-100.00,West,265,1.0,1.0,97,-99.99,,,-99.99,,2013-03-16 11:43:00,
2013-03-16 06:53:00,2.0,1.0,-100.00,West,265,1.0,1.0,97,-99.99,,,-99.99,,2013-03-16 11:53:00,
2013-03-16 07:02:00,2.0,1.0,-100.00,NNW,340,1.0,2.0,98,-99.99,,,-99.99,,2013-03-16 12:02:00,
2013-03-16 07:32:00,2.0,1.0,-100.00,NNW,340,1.0,2.0,98,-99.99,,,-99.99,,2013-03-16 12:32:00,
2013-03-16 07:43:00,2.0,1.0,-100.00,NNW,340,1.0,2.0,98,-99.99,,,-99.99,,2013-03-16 12:43:00,
2013-03-16 07:52:00,2.0,1.0,-100.00,NNW,340,1.0,2.0,98,-99.99,,,-99.99,,2013-03-16 12:52:00,
2013-03-16 08:02:00,2.0,1.0,-100.00,ENE,65,1.0,2.0,98,-99.99,,,-99.99,,2013-03-16 13:02:00,
2013-03-16 08:32:00,2.0,1.0,-100.00,ENE,65,1.0,2.0,98,-99.99,,,-99.99,,2013-03-16 13:32:00,
2013-03-16 08:42:00,2.0,1.0,-100.00,ENE,65,1.0,2.0,98,-99.99,,,-99.99,,2013-03-16 13:42:00,
2013-03-16 08:53:00,2.0,1.0,-100.00,ENE,65,1.0,2.0,98,-99.99,,,-99.99,,2013-03-16 13:53:00,
2013-03-16 09:02:00,7.0,7.0,-100.00,NNW,335,1.0,1.0,98,-99.99,,,-99.99,,2013-03-16 14:02:00,
2013-03-16 09:32:00,7.0,7.0,-100.00,NNW,335,1.0,1.0,98,-99.99,,,-99.99,,2013-03-16 14:32:00,
2013-03-16 09:42:00,7.0,7.0,-100.00,NNW,335,1.0,1.0,98,-99.99,,,-99.99,,2013-03-16 14:42:00,
2013-03-16 09:52:00,7.0,7.0,-100.00,NNW,335,1.0,1.0,98,-99.99,,,-99.99,,2013-03-16 14:52:00,
2013-03-16 10:02:00,11.0,9.0,-100.00,ENE,65,2.0,4.0,93,-99.99,,,-99.99,,2013-03-16 15:02:00,
2013-03-16 10:33:00,11.0,9.0,-100.00,ENE,65,2.0,4.0,93,-99.99,,,-99.99,,2013-03-16 15:33:00,
2013-03-16 10:44:00,11.0,9.0,-100.00,ENE,65,2.0,4.0,93,-99.99,,,-99.99,,2013-03-16 15:44:00,
2013-03-16 10:53:00,11.0,9.0,-100.00,ENE,65,2.0,4.0,93,-99.99,,,-99.99,,2013-03-16 15:53:00,
2013-03-16 11:02:00,13.0,8.0,-100.00,NW,310,4.0,6.0,82,-99.99,,,-99.99,,2013-03-16 16:02:00,
2013-03-16 11:33:00,13.0,8.0,-100.00,NW,310,4.0,6.0,82,-99.99,,,-99.99,,2013-03-16 16:33:00,
2013-03-16 11:43:00,13.0,8.0,-100.00,NW,310,4.0,6.0,82,-99.99,,,-99.99,,2013-03-16 16:43:00,
2013-03-16 11:53:00,13.0,8.0,-100.00,NW,310,4.0,6.0,82,-99.99,,,-99.99,,2013-03-16 16:53:00,
2013-03-16 12:02:00,17.0,11.0,-100.00,NW,305,4.0,4.0,76,-99.99,,,-99.99,,2013-03-16 17:02:00,
2013-03-16 12:33:00,17.0,11.0,-100.00,NW,305,4.0,4.0,76,-99.99,,,-99.99,,2013-03-16 17:33:00,
2013-03-16 12:43:00,17.0,11.0,-100.00,NW,305,4.0,4.0,76,-99.99,,,-99.99,,2013-03-16 17:43:00,
2013-03-16 12:53:00,17.0,11.0,-100.00,NW,305,4.0,4.0,76,-99.99,,,-99.99,,2013-03-16 17:53:00,
2013-03-16 13:02:00,18.0,11.0,-100.00,NE,35,6.0,7.0,73,-99.99,,,-99.99,,2013-03-16 18:02:00,
2013-03-16 13:33:00,18.0,11.0,-100.00,NE,35,6.0,7.0,73,-99.99,,,-99.99,,2013-03-16 18:33:00,
2013-03-16 13:43:00,18.0,11.0,-100.00,NE,35,6.0,7.0,73,-99.99,,,-99.99,,2013-03-16 18:43:00,
2013-03-16 13:53:00,18.0,11.0,-100.00,NE,35,6.0,7.0,73,-99.99,,,-99.99,,2013-03-16 18:53:00,
2013-03-16 14:02:00,20.0,12.0,-100.00,North,0,3.0,5.0,72,-99.99,,,-99.99,,2013-03-16 19:02:00,
2013-03-16 14:33:00,20.0,12.0,-100.00,North,0,3.0,5.0,72,-99.99,,,-99.99,,2013-03-16 19:33:00,
2013-03-16 14:42:00,20.0,12.0,-100.00,North,0,3.0,5.0,72,-99.99,,,-99.99,,2013-03-16 19:42:00,
2013-03-16 14:53:00,20.0,12.0,-100.00,North,0,3.0,5.0,72,-99.99,,,-99.99,,2013-03-16 19:53:00,
2013-03-16 15:02:00,21.0,12.0,-100.00,NNE,15,4.0,7.0,69,-99.99,,,-99.99,,2013-03-16 20:02:00,
2013-03-16 15:33:00,21.0,12.0,-100.00,NNE,15,4.0,7.0,69,-99.99,,,-99.99,,2013-03-16 20:33:00,
2013-03-16 15:42:00,21.0,12.0,-100.00,NNE,15,4.0,7.0,69,-99.99,,,-99.99,,2013-03-16 20:42:00,
2013-03-16 15:52:00,21.0,12.0,-100.00,NNE,15,4.0,7.0,69,-99.99,,,-99.99,,2013-03-16 20:52:00,
2013-03-16 16:02:00,20.0,12.0,-100.00,North,0,4.0,7.0,71,-99.99,,,-99.99,,2013-03-16 21:02:00,
2013-03-16 16:33:00,20.0,12.0,-100.00,North,0,4.0,7.0,71,-99.99,,,-99.99,,2013-03-16 21:33:00,
2013-03-16 16:43:00,20.0,12.0,-100.00,North,0,4.0,7.0,71,-99.99,,,-99.99,,2013-03-16 21:43:00,
2013-03-16 16:53:00,20.0,12.0,-100.00,North,0,4.0,7.0,71,-99.99,,,-99.99,,2013-03-16 21:53:00,
2013-03-16 17:02:00,17.0,9.0,-100.00,NNE,25,6.0,7.0,72,-99.99,,,-99.99,,2013-03-16 22:02:00,
2013-03-16 17:33:00,17.0,9.0,-100.00,NNE,25,6.0,7.0,72,-99.99,,,-99.99,,2013-03-16 22:33:00,
2013-03-16 17:42:00,17.0,9.0,-100.00,NNE,25,6.0,7.0,72,-99.99,,,-99.99,,2013-03-16 22:42:00,
2013-03-16 17:53:00,17.0,9.0,-100.00,NNE,25,6.0,7.0,72,-99.99,,,-99.99,,2013-03-16 22:53:00,
2013-03-16 18:02:00,15.0,9.0,-100.00,ENE,75,10.0,12.0,76,-99.99,,,-99.99,,2013-03-16 23:02:00,
2013-03-16 18:33:00,15.0,9.0,-100.00,ENE,75,10.0,12.0,76,-99.99,,,-99.99,,2013-03-16 23:33:00,
2013-03-16 18:42:00,15.0,9.0,-100.00,ENE,75,10.0,12.0,76,-99.99,,,-99.99,,2013-03-16 23:42:00,
2013-03-16 18:52:00,15.0,9.0,-100.00,ENE,75,10.0,12.0,76,-99.99,,,-99.99,,2013-03-16 23:52:00,
2013-03-16 19:02:00,13.0,7.0,-100.00,East,85,9.0,13.0,76,-99.99,,,-99.99,,2013-03-17 00:02:00,
2013-03-16 19:33:00,13.0,7.0,-100.00,East,85,9.0,13.0,76,-99.99,,,-99.99,,2013-03-17 00:33:00,
2013-03-16 19:43:00,13.0,7.0,-100.00,East,85,9.0,13.0,76,-99.99,,,-99.99,,2013-03-17 00:43:00,
2013-03-16 19:52:00,13.0,7.0,-100.00,East,85,9.0,13.0,76,-99.99,,,-99.99,,2013-03-17 00:52:00,
2013-03-16 20:02:00,12.0,6.0,-100.00,East,90,9.0,11.0,78,-99.99,,,-99.99,,2013-03-17 01:02:00,
2013-03-16 20:33:00,12.0,6.0,-100.00,East,90,9.0,11.0,78,-99.99,,,-99.99,,2013-03-17 01:33:00,
2013-03-16 20:43:00,12.0,6.0,-100.00,East,90,9.0,11.0,78,-99.99,,,-99.99,,2013-03-17 01:43:00,
2013-03-16 20:53:00,12.0,6.0,-100.00,East,90,9.0,11.0,78,-99.99,,,-99.99,,2013-03-17 01:53:00,
2013-03-16 21:02:00,11.0,6.0,-100.00,East,95,10.0,14.0,78,-99.99,,,-99.99,,2013-03-17 02:02:00,
2013-03-16 21:33:00,11.0,6.0,-100.00,East,95,10.0,14.0,78,-99.99,,,-99.99,,2013-03-17 02:33:00,
2013-03-16 21:43:00,11.0,6.0,-100.00,East,95,10.0,14.0,78,-99.99,,,-99.99,,2013-03-17 02:43:00,
2013-03-16 21:53:00,11.0,6.0,-100.00,East,95,10.0,14.0,78,-99.99,,,-99.99,,2013-03-17 02:53:00,
2013-03-16 22:02:00,11.0,5.0,-100.00,East,100,9.0,11.0,78,-99.99,,,-99.99,,2013-03-17 03:02:00,
2013-03-16 22:34:00,11.0,5.0,-100.00,East,100,9.0,11.0,78,-99.99,,,-99.99,,2013-03-17 03:34:00,
2013-03-16 22:43:00,11.0,5.0,-100.00,East,100,9.0,11.0,78,-99.99,,,-99.99,,2013-03-17 03:43:00,
2013-03-16 22:53:00,11.0,5.0,-100.00,East,100,9.0,11.0,78,-99.99,,,-99.99,,2013-03-17 03:53:00,
2013-03-16 23:02:00,11.0,6.0,-100.00,ESE,115,8.0,11.0,80,-99.99,,,-99.99,,2013-03-17 04:02:00,
2013-03-16 23:33:00,11.0,6.0,-100.00,ESE,115,8.0,11.0,80,-99.99,,,-99.99,,2013-03-17 04:33:00,
2013-03-16 23:43:00,11.0,6.0,-100.00,ESE,115,8.0,11.0,80,-99.99,,,-99.99,,2013-03-17 04:43:00,
2013-03-16 23:53:00,11.0,6.0,-100.00,ESE,115,8.0,11.0,80,-99.99,,,-99.99,,2013-03-17 04:53:00,